Weather History for KDLS - September, 2013

Change the Weather History Date:

Monday, September 16, 2013

  Actual Average Record
Temperature  
Mean Temperature 68 °F -  
Max Temperature 75 °F 80 °F 98 °F (1967)
Min Temperature 62 °F 51 °F 36 °F (1965)
Cooling Degree Days 4    
Growing Degree Days 18 (Base 50)    
Moisture  
Dew Point 52 °F    
Average Humidity 58    
Maximum Humidity 70    
Minimum Humidity 43    
Precipitation  
Precipitation 0.00 in - - ()
Sea Level Pressure  
Sea Level Pressure 29.87 in    
Wind  
Wind Speed 13 mph (WNW)    
Max Wind Speed 18 mph    
Max Gust Speed 29 mph    
Visibility 10 miles    
Events      
Averages and records for this station are not official NWS values.
T = Trace of Precipitation, MM = Missing Value Source: NWS Daily Summary

Daily Weather History Graph

Daily Weather History Graph

Search for Another Location

Airport or City:

Trip Planner

Search our weather history database for the weather conditions in past years. The results will help you decide how hot, cold, wet, or windy it might be!

Date:

Astronomy

Sep. 16, 2013 Rise Set
Actual Time 6:44 AM PDT 7:13 PM PDT
Civil Twilight 6:14 AM PDT 7:42 PM PDT
Nautical Twilight 5:39 AM PDT 8:18 PM PDT
Astronomical Twilight 5:03 AM PDT 8:54 PM PDT
Moon 5:30 PM PDT (9/16) 3:29 AM PDT (9/16)
Length of Visible Light 13h 28m
Length of Day
12h 28m
Waxing Gibbous, 91% of the Moon is Illuminated
Sep 16
Waxing Gibbous
Sep 19
Full
Sep 26
Last Quarter
Oct 4
New
Oct 11
First Quarter

Hourly Weather History & Observations

Time (PDT) Temp. Dew Point Humidity Pressure Visibility Wind Dir Wind Speed Gust Speed Precip Events Conditions
12:53 AM 64.9 °F 54.0 °F 68% 29.81 in 10.0 mi WNW 12.7 mph - N/A   Clear
1:53 AM 64.9 °F 53.1 °F 65% 29.82 in 10.0 mi WNW 11.5 mph 24.2 mph N/A   Clear
2:53 AM 64.0 °F 53.1 °F 67% 29.84 in 10.0 mi WNW 10.4 mph - N/A   Clear
3:53 AM 64.0 °F 54.0 °F 70% 29.86 in 10.0 mi NW 16.1 mph 23.0 mph N/A   Clear
4:53 AM 63.0 °F 52.0 °F 67% 29.87 in 10.0 mi NW 13.8 mph 21.9 mph N/A   Clear
5:53 AM 62.1 °F 52.0 °F 70% 29.88 in 10.0 mi West 9.2 mph - N/A   Clear
6:53 AM 62.1 °F 51.1 °F 67% 29.89 in 10.0 mi West 11.5 mph - N/A   Clear
7:53 AM 64.0 °F 52.0 °F 65% 29.90 in 10.0 mi West 12.7 mph - N/A   Clear
8:53 AM 66.9 °F 52.0 °F 59% 29.91 in 10.0 mi WNW 12.7 mph - N/A   Clear
9:53 AM 70.0 °F 52.0 °F 53% 29.91 in 10.0 mi NNW 13.8 mph - N/A   Clear
10:53 AM 71.1 °F 52.0 °F 51% 29.91 in 10.0 mi NW 13.8 mph 23.0 mph N/A   Clear
11:53 AM 73.0 °F 52.0 °F 48% 29.92 in 10.0 mi NNW 17.3 mph 24.2 mph N/A   Clear
12:53 PM 73.9 °F 52.0 °F 46% 29.91 in 10.0 mi NNW 18.4 mph 28.8 mph N/A   Clear
1:53 PM 75.0 °F 52.0 °F 44% 29.90 in 10.0 mi NNW 17.3 mph 27.6 mph N/A   Overcast
2:53 PM 73.0 °F 52.0 °F 48% 29.89 in 10.0 mi NW 12.7 mph 24.2 mph N/A   Mostly Cloudy
3:53 PM 75.0 °F 51.1 °F 43% 29.88 in 10.0 mi NNW 17.3 mph 26.5 mph N/A   Clear
4:53 PM 73.0 °F 52.0 °F 48% 29.87 in 10.0 mi NW 18.4 mph 25.3 mph N/A   Clear
5:53 PM 71.1 °F 51.1 °F 49% 29.87 in 10.0 mi NW 12.7 mph 25.3 mph N/A   Clear
6:53 PM 69.1 °F 51.1 °F 53% 29.86 in 10.0 mi WNW 17.3 mph 24.2 mph N/A   Clear
7:53 PM 66.9 °F 52.0 °F 59% 29.86 in 10.0 mi WNW 18.4 mph - N/A   Clear
8:53 PM 66.9 °F 52.0 °F 59% 29.86 in 10.0 mi West 11.5 mph 26.5 mph N/A   Clear
9:53 PM 66.9 °F 52.0 °F 59% 29.86 in 10.0 mi West 15.0 mph 24.2 mph N/A   Clear
10:53 PM 64.9 °F 52.0 °F 63% 29.86 in 10.0 mi West 10.4 mph - N/A   Clear
11:53 PM 63.0 °F 52.0 °F 67% 29.85 in 10.0 mi NW 5.8 mph - N/A   Clear